Date String (YYYY-MM-DD hh:mm:ss) UTC,Instrument flags,absolute air pressure of the measurement (hPa),sample flow rate (lpm),inlet stack bypass flow (lpm),air temperature of the measurement (°C),ambient temperature measured by the external sensor (°C),aerosol sample conditioner tube jacket temperature (°C),OPC LED temperature (°C),internal box temperature (°C),relative humidity of the measurement (%),span deviation,mass concentration of particles derived from Lorenz-Mie calculation of OPC scattering (μg/m³),mass concentration of particles derived from Lorenz-Mie calculation of OPC scattering (μg/m³),mass concentration of particles derived from Lorenz-Mie calculation of OPC scattering (μg/m³)
DateTimeUTC,F1_M11,P_M11,Q1_M11,Q2_M11,T1_M11,T2_M11,T3_M11,T4_M11,T5_M11,U1_M11,ZSPAN_M11,X2_M11,X0_M11,X1_M11
2024-02-02 13:00:00,SystemResetWarning,0818.4,5.00,000.00,022.1,021.4,000.0,030.5,023.8,12.4,0000.0,0004.48,0010.72,0003.86
2024-02-02 13:01:00,SystemResetWarning,0818.4,5.00,000.00,022.1,021.4,000.0,030.5,023.8,12.4,0000.0,0004.44,0010.25,0003.85
2024-02-02 13:02:00,SystemResetWarning,0818.4,5.01,000.00,022.1,021.4,000.0,030.4,023.8,12.5,0000.0,0004.39,0010.00,0003.81
2024-02-02 13:03:00,SystemResetWarning,0818.4,5.00,000.00,022.1,021.4,000.0,030.4,023.7,12.5,0000.0,0004.32,0009.81,0003.76
2024-02-02 13:04:00,SystemResetWarning,0818.4,4.99,000.00,022.1,021.4,000.0,030.4,023.7,12.5,0000.0,0004.25,0010.10,0003.68
2024-02-02 13:05:00,SystemResetWarning,0818.4,5.00,000.00,022.1,021.4,000.0,030.4,023.7,12.5,0000.0,0004.18,0010.32,0003.61
2024-02-02 13:06:00,SystemResetWarning,0818.4,4.99,000.00,022.1,021.4,000.0,030.4,023.7,12.5,0000.0,0004.05,0010.12,0003.51
2024-02-02 13:07:00,SystemResetWarning,0818.4,5.00,000.00,022.1,021.4,000.0,030.4,023.7,12.5,0000.0,0003.88,0009.86,0003.39
2024-02-02 13:08:00,SystemResetWarning,0818.4,5.00,000.00,022.1,021.4,000.0,030.4,023.7,12.6,0000.0,0003.70,0009.19,0003.26
2024-02-02 13:09:00,SystemResetWarning,0818.4,5.00,000.00,022.1,021.4,000.0,030.4,023.7,12.6,0000.0,0003.57,0008.73,0003.13
2024-02-02 13:10:00,SystemResetWarning,0818.4,5.01,000.00,022.1,021.4,000.0,030.4,023.7,12.6,0000.0,0003.41,0008.46,0002.96
2024-02-02 13:11:00,SystemResetWarning,0818.4,5.01,000.00,022.1,021.4,000.0,030.4,023.7,12.6,0000.0,0003.33,0008.37,0002.82
2024-02-02 13:12:00,SystemResetWarning,0818.4,5.00,000.00,022.1,021.4,000.0,030.4,023.7,12.6,0000.0,0003.26,0008.22,0002.72
2024-02-02 13:13:00,SystemResetWarning,0818.4,4.99,000.00,022.1,021.4,000.0,030.4,023.7,12.6,0000.0,0003.20,0008.08,0002.67
2024-02-02 13:14:00,SystemResetWarning,0818.5,5.00,000.00,022.1,021.4,000.0,030.4,023.7,12.6,0000.0,0003.20,0008.34,0002.64
2024-02-02 13:15:00,SystemResetWarning,0818.4,4.99,000.00,022.0,021.4,000.0,030.4,023.7,12.6,0000.0,0003.18,0008.13,0002.64
2024-02-02 13:16:00,SystemResetWarning,0818.4,5.00,000.00,022.0,021.4,000.0,030.4,023.7,12.6,0000.0,0003.17,0008.17,0002.64
2024-02-02 13:17:00,SystemResetWarning,0818.4,5.00,000.00,022.0,021.4,000.0,030.4,023.7,12.7,0000.0,0003.20,0008.44,0002.64
2024-02-02 13:18:00,SystemResetWarning,0818.4,4.99,000.00,022.0,021.4,000.0,030.4,023.7,12.6,0000.0,0003.23,0008.48,0002.65
2024-02-02 13:19:00,SystemResetWarning,0818.4,5.01,000.00,022.0,021.4,000.0,030.4,023.7,12.7,0000.0,0003.24,0007.92,0002.69
2024-02-02 13:20:00,SystemResetWarning,0818.3,5.01,000.00,022.0,021.4,000.0,030.4,023.7,12.7,0000.0,0003.24,0007.87,0002.72
2024-02-02 13:21:00,SystemResetWarning,0818.3,5.01,000.00,022.0,021.4,000.0,030.4,023.7,12.7,0000.0,0003.27,0007.57,0002.76
2024-02-02 13:22:00,SystemResetWarning,0818.4,4.99,000.00,022.0,021.4,000.0,030.4,023.7,12.7,0000.0,0003.29,0007.39,0002.79
2024-02-02 13:23:00,SystemResetWarning,0818.3,4.99,000.00,022.0,021.4,000.0,030.4,023.7,12.6,0000.0,0003.30,0007.18,0002.83
2024-02-02 13:24:00,SystemResetWarning,0818.4,5.00,000.00,022.0,021.4,000.0,030.4,023.7,12.6,0000.0,0003.37,0007.49,0002.87
2024-02-02 13:25:00,SystemResetWarning,0818.4,5.00,000.00,022.0,021.4,000.0,030.4,023.7,12.5,0000.0,0003.39,0007.26,0002.90
2024-02-02 13:26:00,SystemResetWarning,0818.4,5.00,000.00,022.0,021.4,000.0,030.4,023.7,12.5,0000.0,0003.40,0007.02,0002.90
2024-02-02 13:27:00,SystemResetWarning,0818.4,5.01,000.00,022.0,021.4,000.0,030.4,023.7,12.5,0000.0,0003.41,0006.52,0002.88
2024-02-02 13:28:00,SystemResetWarning,0818.4,5.01,000.00,022.0,021.4,000.0,030.3,023.7,12.5,0000.0,0003.41,0006.00,0002.88
2024-02-02 13:29:00,SystemResetWarning,0818.4,5.01,000.00,022.0,021.3,000.0,030.3,023.7,12.5,0000.0,0003.38,0006.99,0002.89
2024-02-02 13:30:00,SystemResetWarning,0818.4,4.99,000.00,022.0,021.3,000.0,030.3,023.7,12.5,0000.0,0003.39,0007.27,0002.87
2024-02-02 13:31:00,SystemResetWarning,0818.4,5.00,000.00,022.0,021.3,000.0,030.3,023.7,12.5,0000.0,0003.39,0007.33,0002.84
2024-02-02 13:32:00,SystemResetWarning,0818.4,4.99,000.00,022.0,021.3,000.0,030.3,023.7,12.5,0000.0,0003.37,0007.24,0002.79
2024-02-02 13:33:00,SystemResetWarning,0818.3,5.00,000.00,022.0,021.3,000.0,030.3,023.7,12.5,0000.0,0003.36,0007.05,0002.74
2024-02-02 13:34:00,SystemResetWarning,0818.4,5.01,000.00,022.0,021.3,000.0,030.3,023.7,12.5,0000.0,0003.38,0007.18,0002.73
2024-02-02 13:35:00,SystemResetWarning,0818.4,5.01,000.00,022.0,021.3,000.0,030.3,023.7,12.5,0000.0,0003.33,0006.92,0002.70
2024-02-02 13:36:00,SystemResetWarning,0818.3,5.01,000.00,022.0,021.3,000.0,030.3,023.7,12.5,0000.0,0003.31,0006.89,0002.67
2024-02-02 13:37:00,SystemResetWarning,0818.3,4.99,000.00,022.0,021.3,000.0,030.3,023.7,12.4,0000.0,0003.31,0006.99,0002.67
2024-02-02 13:38:00,SystemResetWarning,0818.3,5.00,000.00,022.0,021.3,000.0,030.3,023.7,12.4,0000.0,0003.31,0007.08,0002.67
2024-02-02 13:39:00,SystemResetWarning,0818.3,5.00,000.00,022.0,021.3,000.0,030.3,023.7,12.4,0000.0,0003.32,0007.39,0002.66
2024-02-02 13:40:00,SystemResetWarning,0818.3,5.00,000.00,022.0,021.3,000.0,030.3,023.7,12.4,0000.0,0003.30,0007.15,0002.65
2024-02-02 13:41:00,SystemResetWarning,0818.3,5.00,000.00,022.0,021.3,000.0,030.3,023.7,12.4,0000.0,0003.30,0006.83,0002.64
2024-02-02 13:42:00,SystemResetWarning,0818.3,5.00,000.00,022.0,021.3,000.0,030.3,023.7,12.4,0000.0,0003.29,0007.70,0002.65
2024-02-02 13:43:00,SystemResetWarning,0818.3,5.00,000.00,022.0,021.3,000.0,030.3,023.7,12.5,0000.0,0003.30,0007.82,0002.66
2024-02-02 13:44:00,SystemResetWarning,0818.3,5.00,000.00,022.0,021.3,000.0,030.3,023.7,12.4,0000.0,0003.29,0008.74,0002.67
2024-02-02 13:45:00,SystemResetWarning,0818.3,5.00,000.00,022.0,021.3,000.0,030.3,023.7,12.4,0000.0,0003.26,0008.80,0002.67
2024-02-02 13:46:00,SystemResetWarning,0818.3,5.01,000.00,022.0,021.3,000.0,030.3,023.7,12.4,0000.0,0003.28,0008.85,0002.68
2024-02-02 13:47:00,SystemResetWarning,0818.3,5.00,000.00,022.0,021.3,000.0,030.3,023.7,12.4,0000.0,0003.32,0008.95,0002.71
2024-02-02 13:48:00,SystemResetWarning,0818.3,5.00,000.00,022.0,021.3,000.0,030.3,023.7,12.4,0000.0,0003.31,0009.33,0002.72
2024-02-02 13:49:00,SystemResetWarning,0818.3,5.00,000.00,022.0,021.3,000.0,030.3,023.7,12.4,0000.0,0003.31,0009.34,0002.73
2024-02-02 13:50:00,SystemResetWarning,0818.3,4.99,000.00,022.0,021.3,000.0,030.3,023.6,12.4,0000.0,0003.29,0008.99,0002.75
2024-02-02 13:51:00,SystemResetWarning,0818.3,4.99,000.00,022.0,021.3,000.0,030.3,023.6,12.4,0000.0,0003.32,0009.47,0002.79
2024-02-02 13:52:00,SystemResetWarning,0818.2,5.00,000.00,022.0,021.3,000.0,030.3,023.6,12.4,0000.0,0003.33,0009.52,0002.84
2024-02-02 13:53:00,SystemResetWarning,0818.2,5.00,000.00,022.0,021.3,000.0,030.3,023.7,12.4,0000.0,0003.35,0009.53,0002.86
2024-02-02 13:54:00,SystemResetWarning,0818.2,5.02,000.00,022.0,021.3,000.0,030.3,023.7,12.4,0000.0,0003.36,0009.70,0002.88
2024-02-02 13:55:00,SystemResetWarning,0818.2,5.00,000.00,022.0,021.3,000.0,030.3,023.6,12.4,0000.0,0003.40,0008.86,0002.91
2024-02-02 13:56:00,SystemResetWarning,0818.2,5.00,000.00,021.9,021.3,000.0,030.3,023.6,12.4,0000.0,0003.41,0008.85,0002.91
2024-02-02 13:57:00,SystemResetWarning,0818.3,5.00,000.00,021.9,021.3,000.0,030.3,023.6,12.4,0000.0,0003.39,0009.19,0002.90
2024-02-02 13:58:00,SystemResetWarning,0818.3,5.00,000.00,021.9,021.3,000.0,030.3,023.6,12.4,0000.0,0003.37,0009.73,0002.88
2024-02-02 13:59:00,SystemResetWarning,0818.3,5.00,000.00,021.9,021.3,000.0,030.3,023.6,12.4,0000.0,0003.37,0009.45,0002.86
